El Paso, TX

3:09 PM MDT on March 24, 2017 (GMT -0600)
El Paso International

Weather History for KELP - March, 2013

Change the Weather History Date:

Monday, March 4, 2013

  Actual Average Record
Temperature  
Mean Temperature 66 °F 54 °F  
Max Temperature 79 °F 67 °F 84 °F (1908)
Min Temperature 53 °F 41 °F 15 °F (1965)
Degree Days  
Heating Degree Days 0 11  
Month to date heating degree days 33 46  
Since 1 July heating degree days 1998 2149  
Cooling Degree Days 1 0  
Month to date cooling degree days 1 0  
Year to date cooling degree days 1 0  
Growing Degree Days 16 (Base 50)    
Moisture  
Dew Point 14 °F    
Average Humidity 13    
Maximum Humidity 20    
Minimum Humidity 6    
Precipitation  
Precipitation 0.00 in 0.01 in 0.29 in (1892)
Month to date precipitation 0.00 0.04  
Year to date precipitation 0.71 0.90  
Snow  
Snow 0.00 in - - ()
Month to date snowfall 0.0  
Since 1 July snowfall 3.1  
Snow Depth 0.00 in    
Sea Level Pressure  
Sea Level Pressure 29.75 in    
Wind  
Wind Speed 18 mph (WSW)    
Max Wind Speed 37 mph    
Max Gust Speed 59 mph    
Visibility 8 miles    
Events      
T = Trace of Precipitation, MM = Missing Value Source: NWS Daily Summary

Daily Weather History Graph

Daily Weather History Graph

Search for Another Location

Airport or City:

Trip Planner

Search our weather history database for the weather conditions in past years. The results will help you decide how hot, cold, wet, or windy it might be!

Date:

Astronomy

Mar. 04, 2013 Rise Set
Actual Time 6:28 AM MST 6:05 PM MST
Civil Twilight 6:04 AM MST 6:30 PM MST
Nautical Twilight 5:36 AM MST 6:58 PM MST
Astronomical Twilight 5:07 AM MST 7:26 PM MST
Moon 12:26 AM MST (3/4) 11:05 AM MST (3/4)
Length of Visible Light 12h 25m
Length of Day
11h 37m
Waning Gibbous, 51% of the Moon is Illuminated
Mar 4
Waning Gibbous
Mar 4
Last Quarter
Mar 11
New
Mar 19
First Quarter
Mar 27
Full

Hourly Weather History & Observations

Time (MST) Temp. Dew Point Humidity Pressure Visibility Wind Dir Wind Speed Gust Speed Precip Events Conditions
12:51 AM 66.0 °F 8.1 °F 10% 29.75 in 10.0 mi WNW 8.1 mph - N/A   Mostly Cloudy
1:51 AM 64.0 °F 10.0 °F 12% 29.76 in 10.0 mi NW 8.1 mph - N/A   Mostly Cloudy
2:51 AM 59.0 °F 12.9 °F 16% 29.75 in 10.0 mi South 5.8 mph - N/A   Mostly Cloudy
3:51 AM 55.9 °F 12.0 °F 18% 29.75 in 10.0 mi South 10.4 mph - N/A   Mostly Cloudy
4:51 AM 53.1 °F 14.0 °F 21% 29.76 in 10.0 mi SSE 8.1 mph - N/A   Mostly Cloudy
5:51 AM 55.0 °F 12.9 °F 19% 29.79 in 10.0 mi South 12.7 mph - N/A   Mostly Cloudy
6:51 AM 55.0 °F 12.0 °F 18% 29.80 in 10.0 mi South 8.1 mph - N/A   Mostly Cloudy
7:51 AM 57.0 °F 8.1 °F 14% 29.80 in 10.0 mi South 10.4 mph - N/A   Mostly Cloudy
8:51 AM 64.9 °F 9.0 °F 11% 29.77 in 10.0 mi SW 13.8 mph - N/A   Overcast
9:51 AM 68.0 °F 12.0 °F 11% 29.76 in 10.0 mi SW 15.0 mph - N/A   Mostly Cloudy
10:51 AM 70.0 °F 7.0 °F 9% 29.74 in 10.0 mi West 16.1 mph 19.6 mph N/A   Mostly Cloudy
11:51 AM 72.0 °F -0.9 °F 6% 29.70 in 8.0 mi WSW 8.1 mph - N/A   Scattered Clouds
12:51 PM 75.9 °F 8.1 °F 7% 29.63 in 6.0 mi WNW 12.7 mph 26.5 mph N/A   Widespread Dust
1:51 PM 78.1 °F 27.0 °F 15% 29.59 in 4.0 mi WSW 36.8 mph 52.9 mph N/A   Widespread Dust
2:31 PM 77.0 °F 21.2 °F 12% 29.78 in 2.0 mi WNW 24.2 mph 56.4 mph N/A   Widespread Dust
2:51 PM 78.1 °F 19.0 °F 11% 29.60 in 2.0 mi WSW 36.8 mph 56.4 mph N/A   Widespread Dust
3:06 PM 78.8 °F 19.4 °F 11% 29.78 in 3.0 mi West 28.8 mph 42.6 mph N/A   Widespread Dust
3:51 PM 78.1 °F 21.0 °F 12% 29.61 in 4.0 mi SW 35.7 mph 43.7 mph N/A   Widespread Dust
4:51 PM 75.0 °F 21.9 °F 14% 29.65 in 5.0 mi West 26.5 mph 40.3 mph N/A   Widespread Dust
5:51 PM 71.1 °F 18.0 °F 13% 29.69 in 4.0 mi WNW 29.9 mph 40.3 mph N/A   Widespread Dust
6:51 PM 68.0 °F 18.0 °F 15% 29.75 in 10.0 mi NW 25.3 mph 41.4 mph N/A   Partly Cloudy
7:51 PM 66.9 °F 17.1 °F 15% 29.80 in 10.0 mi NW 25.3 mph 44.9 mph N/A   Partly Cloudy
8:51 PM 66.0 °F 19.0 °F 17% 29.83 in 10.0 mi NW 23.0 mph 34.5 mph N/A   Clear
9:51 PM 64.0 °F 16.0 °F 16% 29.87 in 10.0 mi NNW 19.6 mph 26.5 mph N/A   Clear
10:51 PM 62.1 °F 18.0 °F 18% 29.88 in 10.0 mi NW 17.3 mph - N/A   Partly Cloudy